Weather History for Farmington, NM

Change the Weather History Date:

Monday, February 4, 2013

  Actual Average Record
Temperature  
Mean Temperature 32 °F -  
Max Temperature 43 °F 44 °F 59 °F (2009)
Min Temperature 21 °F 20 °F 3 °F (2011)
Degree Days  
Heating Degree Days 33    
Moisture  
Dew Point 26 °F    
Average Humidity 76    
Maximum Humidity 93    
Minimum Humidity 43    
Precipitation  
Precipitation 0.00 in - - ()
Sea Level Pressure  
Sea Level Pressure 30.15 in    
Wind  
Wind Speed 2 mph (WSW)    
Max Wind Speed 8 mph    
Max Gust Speed -    
Visibility 9 miles    
Events      
Averages and records for this station are not official NWS values.
T = Trace of Precipitation, MM = Missing Value Source: NWS Daily Summary

Daily Weather History Graph

Daily Weather History Graph

Search for Another Location

Airport:

Trip Planner

Search our weather history database for the weather conditions in past years. The results will help you decide how hot, cold, wet, or windy it might be!

Date:

Astronomy

Feb. 04, 2013 Rise Set
Actual Time 7:12 AM MST 5:42 PM MST
Civil Twilight 6:45 AM MST 6:09 PM MST
Nautical Twilight 6:14 AM MST 6:39 PM MST
Astronomical Twilight 5:43 AM MST 7:10 PM MST
Moon 1:49 AM MST (2/4) 12:10 PM MST (2/4)
Length of Visible Light 11h 24m
Length of Day
10h 30m
Last Quarter, 36% of the Moon is Illuminated
Feb 4
Last Quarter
Feb 10
New
Feb 17
First Quarter
Feb 25
Full
Mar 4
Last Quarter

Hourly Weather History & Observations

Time (MST) Temp. Windchill Dew Point Humidity Pressure Visibility Wind Dir Wind Speed Gust Speed Precip Events Conditions
12:53 AM 30.0 °F - 25.0 °F 82% 30.11 in 10.0 mi Calm Calm - N/A   Clear
1:53 AM 28.0 °F 22.8 °F 24.1 °F 85% 30.11 in 10.0 mi West 4.6 mph - N/A   Clear
3:53 AM 27.0 °F 19.5 °F 24.1 °F 89% 30.12 in 10.0 mi West 6.9 mph - N/A   Clear
4:53 AM 27.0 °F - 24.1 °F 89% 30.14 in 10.0 mi Calm Calm - N/A   Clear
5:53 AM 24.1 °F - 21.9 °F 91% 30.17 in 8.0 mi Calm Calm - N/A   Clear
6:42 AM 23.0 °F - 21.2 °F 93% 30.11 in 8.0 mi Calm Calm - N/A   Scattered Clouds
6:51 AM 24.8 °F - 21.2 °F 86% 30.11 in 8.0 mi Calm Calm - N/A   Mostly Cloudy
6:53 AM 24.1 °F - 21.9 °F 91% 30.18 in 8.0 mi Calm Calm - N/A   Mostly Cloudy
7:53 AM 28.0 °F - 25.0 °F 88% 30.19 in 8.0 mi Calm Calm - N/A   Overcast
8:01 AM 26.6 °F - 24.8 °F 93% 30.14 in 10.0 mi Calm Calm - N/A   Overcast
8:53 AM 28.9 °F - 26.1 °F 89% 30.21 in 9.0 mi Calm Calm - N/A   Overcast
9:53 AM 30.0 °F 25.2 °F 27.0 °F 88% 30.24 in 1.5 mi East 4.6 mph - N/A   Overcast
10:44 AM 32.0 °F 28.7 °F 28.4 °F 87% 30.18 in 9.0 mi ENE 3.5 mph - N/A   Overcast
10:53 AM 30.9 °F - 28.9 °F 92% 30.24 in 9.0 mi Calm Calm - N/A   Overcast
11:25 AM 32.0 °F 28.7 °F 28.4 °F 87% 30.17 in 7.0 mi SE 3.5 mph - N/A   Overcast
11:53 AM 33.1 °F - 28.0 °F 82% 30.22 in 7.0 mi Calm Calm - N/A   Overcast
12:53 PM 37.0 °F - 28.9 °F 73% 30.18 in 10.0 mi Calm Calm - N/A   Mostly Cloudy
1:01 PM 37.4 °F 33.8 °F 28.4 °F 70% 30.13 in 10.0 mi ENE 4.6 mph - N/A   Scattered Clouds
1:53 PM 39.9 °F 35.1 °F 28.0 °F 63% 30.15 in 10.0 mi ENE 6.9 mph - N/A   Clear
2:53 PM 39.9 °F - 27.0 °F 60% 30.13 in 10.0 mi Calm Calm - N/A   Clear
3:53 PM 42.1 °F 40.2 °F 28.0 °F 58% 30.13 in 10.0 mi SW 3.5 mph - N/A   Clear
4:53 PM 43.0 °F 40.3 °F 28.0 °F 56% 30.12 in 10.0 mi SW 4.6 mph - N/A   Clear
5:53 PM 41.0 °F 35.8 °F 28.0 °F 60% 30.12 in 10.0 mi WSW 8.1 mph - N/A   Clear
6:53 PM 39.0 °F 34.0 °F 27.0 °F 62% 30.14 in 10.0 mi WSW 6.9 mph - N/A   Clear
7:53 PM 36.0 °F 31.1 °F 27.0 °F 70% 30.14 in 10.0 mi SW 5.8 mph - N/A   Clear
8:53 PM 34.0 °F 29.8 °F 25.0 °F 70% 30.15 in 10.0 mi West 4.6 mph - N/A   Clear
9:53 PM 33.1 °F 27.7 °F 24.1 °F 70% 30.15 in 10.0 mi West 5.8 mph - N/A   Clear
10:53 PM 34.0 °F 31.0 °F 24.1 °F 67% 30.15 in 10.0 mi NE 3.5 mph - N/A   Clear
11:53 PM 28.0 °F 22.8 °F 24.1 °F 85% 30.16 in 10.0 mi NNE 4.6 mph - N/A   Clear